Language: 


Des rapports , des résumés tant et plus, au choix de chacun....


Données Historiques de Météogheer
Journalier Rapport pour Mars 2, 2018 Unitée:  Impériale    Métrique   Les deux
Suivant Jour »
Journalier Hebdomadaire Mensuel Annuel Sur mesure
  Max: Min: Moyenne:
Température: 33.3 °F 27.3 °F 30.7 °F
Point de rosée: 30.2 °F 8.6 °F 19.2 °F
Humidité: 94% 40% 68%
Vent: 18.1mph 0mph 9.1mph
Rafales: 21.9mph - -
Vent- - East
Pression: 29.4 in 29.2 in -
Pluie: 0 in    
Historical Graphs
 
 
Données tabulaires pour Mars 2, 2018
Heure Température Point de rosée Pression Vent Vent Rafales Humidité Pluie Taux (Horaire) Conditions
00:01 33.3 °F 12.2 °F 29.4 in East 10.5 mph 15.2 mph 40% 0 in
00:06 33.3 °F 12.2 °F 29.4 in East 13 mph 15.2 mph 40% 0 in
00:11 33.3 °F 12.2 °F 29.4 in ENE 9.6 mph 15.2 mph 40% 0 in
00:16 33.3 °F 12.2 °F 29.4 in NE 13.2 mph 13.2 mph 40% 0 in
00:21 33.3 °F 12.2 °F 29.4 in East 16.8 mph 16.8 mph 40% 0 in
00:26 33.3 °F 12.2 °F 29.4 in East 13.2 mph 16.8 mph 40% 0 in
00:31 33.3 °F 12.2 °F 29.3 in NNE 10.7 mph 17.2 mph 40% 0 in
00:36 33.1 °F 12.2 °F 29.3 in ENE 8.7 mph 17.2 mph 40% 0 in
00:41 33.1 °F 12.2 °F 29.3 in ENE 8.1 mph 15.2 mph 40% 0 in
00:46 33.1 °F 12.2 °F 29.3 in ENE 17.7 mph 17.7 mph 40% 0 in
00:51 33.1 °F 12.2 °F 29.3 in ENE 12.3 mph 17.7 mph 40% 0 in
00:56 33.1 °F 12.2 °F 29.3 in East 15.2 mph 17.2 mph 40% 0 in
01:01 32.9 °F 12.2 °F 29.3 in East 9.8 mph 15.2 mph 40% 0 in
01:06 32.9 °F 12.2 °F 29.3 in ENE 8.7 mph 15.2 mph 41% 0 in
01:11 32.9 °F 12.2 °F 29.3 in ESE 12.5 mph 15.2 mph 41% 0 in
01:16 32.9 °F 12.2 °F 29.3 in East 9.8 mph 15.2 mph 41% 0 in
01:21 32.9 °F 12.2 °F 29.3 in East 10.5 mph 17 mph 41% 0 in
01:26 32.9 °F 12.2 °F 29.3 in East 10.3 mph 17.9 mph 41% 0 in
01:31 32.7 °F 12.2 °F 29.3 in East 14.5 mph 17.9 mph 41% 0 in
01:37 32.7 °F 12.2 °F 29.3 in East 10.7 mph 14.5 mph 41% 0 in
01:42 32.7 °F 12.2 °F 29.3 in NE 11 mph 16.6 mph 41% 0 in
01:47 32.7 °F 12.2 °F 29.3 in East 15.4 mph 16.6 mph 41% 0 in
01:52 32.7 °F 12.2 °F 29.3 in East 11.4 mph 15.4 mph 41% 0 in
01:57 32.5 °F 12.2 °F 29.3 in East 7.8 mph 15.4 mph 41% 0 in
02:02 32.5 °F 12.2 °F 29.4 in East 10.1 mph 18.1 mph 41% 0 in
02:07 32.5 °F 12.2 °F 29.4 in East 10.5 mph 18.1 mph 41% 0 in
02:12 32.5 °F 12.2 °F 29.4 in NNE 11.2 mph 17.7 mph 41% 0 in
02:17 32.5 °F 12.2 °F 29.3 in East 8.1 mph 17.7 mph 41% 0 in
02:22 32.4 °F 12.2 °F 29.3 in ENE 8.5 mph 16.8 mph 41% 0 in
02:27 32.4 °F 12.2 °F 29.3 in ENE 15.4 mph 15.4 mph 41% 0 in
02:32 32.4 °F 12.2 °F 29.3 in ENE 15.2 mph 15.4 mph 41% 0 in
02:37 32.2 °F 12.2 °F 29.3 in ENE 10.3 mph 18.8 mph 41% 0 in
02:42 32.2 °F 12.2 °F 29.3 in ENE 13.6 mph 18.8 mph 41% 0 in
02:47 32.2 °F 12.2 °F 29.3 in East 11.2 mph 17.7 mph 41% 0 in
02:52 32.2 °F 12.2 °F 29.3 in NE 8.5 mph 17.7 mph 41% 0 in
02:57 32.2 °F 12.2 °F 29.3 in East 10.5 mph 16.1 mph 41% 0 in
03:02 32.2 °F 12.2 °F 29.3 in ENE 10.7 mph 19.5 mph 41% 0 in
03:07 32 °F 10.4 °F 29.3 in ENE 15.4 mph 19.5 mph 41% 0 in
03:12 32 °F 10.4 °F 29.3 in NE 12.8 mph 17.4 mph 41% 0 in
03:17 32 °F 10.4 °F 29.3 in ENE 12.5 mph 17.4 mph 41% 0 in
03:22 31.8 °F 10.4 °F 29.3 in ENE 8.7 mph 19.2 mph 41% 0 in
03:28 31.8 °F 10.4 °F 29.3 in NE 9.6 mph 19.2 mph 41% 0 in
03:38 31.8 °F 10.4 °F 29.3 in ENE 10.1 mph 17 mph 41% 0 in
03:43 31.6 °F 10.4 °F 29.3 in ENE 13.4 mph 15.4 mph 41% 0 in
03:48 31.6 °F 10.4 °F 29.3 in East 7.8 mph 15.4 mph 41% 0 in
03:53 31.6 °F 10.4 °F 29.3 in ENE 8.5 mph 15.2 mph 41% 0 in
03:58 31.5 °F 8.6 °F 29.3 in ENE 10.3 mph 15.2 mph 41% 0 in
04:03 31.5 °F 8.6 °F 29.3 in NNE 13.2 mph 15.2 mph 41% 0 in
04:08 31.5 °F 8.6 °F 29.3 in ENE 17.4 mph 19 mph 41% 0 in
04:13 31.5 °F 8.6 °F 29.3 in ENE 10.7 mph 19 mph 41% 0 in
04:18 31.5 °F 8.6 °F 29.3 in East 13.2 mph 18.8 mph 41% 0 in
04:23 31.5 °F 8.6 °F 29.3 in East 13.6 mph 18.8 mph 41% 0 in
04:28 31.3 °F 8.6 °F 29.3 in ENE 11 mph 15.4 mph 41% 0 in
04:33 31.3 °F 8.6 °F 29.3 in ENE 12.3 mph 15.9 mph 41% 0 in
04:38 31.3 °F 8.6 °F 29.3 in ENE 12.8 mph 15.9 mph 41% 0 in
04:43 31.1 °F 8.6 °F 29.3 in East 11.9 mph 17.2 mph 41% 0 in
04:48 31.1 °F 8.6 °F 29.3 in ENE 7.8 mph 17.2 mph 42% 0 in
04:53 31.1 °F 8.6 °F 29.3 in NNE 7.8 mph 16.6 mph 42% 0 in
04:58 31.1 °F 8.6 °F 29.3 in ENE 17.7 mph 20.6 mph 42% 0 in
05:03 31.1 °F 8.6 °F 29.3 in ENE 13.9 mph 20.6 mph 42% 0 in
05:08 31.1 °F 8.6 °F 29.3 in NE 10.7 mph 17.4 mph 42% 0 in
05:13 31.1 °F 8.6 °F 29.3 in ENE 16.8 mph 17.4 mph 42% 0 in
05:18 31.1 °F 8.6 °F 29.2 in East 17.2 mph 18.1 mph 42% 0 in
05:24 31.1 °F 8.6 °F 29.2 in ENE 15.4 mph 19.7 mph 42% 0 in
05:29 30.9 °F 8.6 °F 29.2 in NE 15.4 mph 18.6 mph 42% 0 in
05:34 30.9 °F 8.6 °F 29.2 in ENE 11 mph 18.6 mph 42% 0 in
05:39 30.9 °F 8.6 °F 29.2 in East 15.4 mph 18.1 mph 42% 0 in
05:44 30.9 °F 8.6 °F 29.2 in ENE 15.4 mph 18.1 mph 42% 0 in
05:49 30.7 °F 8.6 °F 29.2 in East 17.2 mph 17.2 mph 42% 0 in
05:54 30.7 °F 10.4 °F 29.2 in East 10.1 mph 17.2 mph 43% 0 in
05:59 30.6 °F 8.6 °F 29.2 in East 12.5 mph 14.8 mph 42% 0 in
06:04 30.4 °F 8.6 °F 29.2 in NE 12.5 mph 15.2 mph 42% 0 in
06:09 30.2 °F 8.6 °F 29.2 in ENE 12.1 mph 17 mph 43% 0 in
06:14 30.2 °F 8.6 °F 29.2 in ENE 14.3 mph 20.8 mph 43% 0 in
06:19 30 °F 8.6 °F 29.2 in ENE 10.7 mph 20.8 mph 43% 0 in
06:24 29.8 °F 8.6 °F 29.2 in East 10.1 mph 17.4 mph 43% 0 in
06:29 29.8 °F 10.4 °F 29.2 in ENE 15.2 mph 19.2 mph 44% 0 in
06:34 29.8 °F 10.4 °F 29.2 in ENE 13 mph 19.2 mph 44% 0 in
06:39 29.7 °F 10.4 °F 29.2 in ENE 15.7 mph 16.3 mph 44% 0 in
06:44 29.7 °F 10.4 °F 29.2 in East 14.3 mph 17 mph 44% 0 in
06:49 29.7 °F 10.4 °F 29.2 in ENE 12.1 mph 17.7 mph 45% 0 in
06:54 29.5 °F 10.4 °F 29.2 in ENE 11.9 mph 17.7 mph 45% 0 in
06:59 29.5 °F 10.4 °F 29.2 in ENE 17 mph 19.2 mph 45% 0 in
07:04 29.5 °F 10.4 °F 29.2 in ENE 10.7 mph 19.2 mph 46% 0 in
07:09 29.5 °F 10.4 °F 29.2 in East 10.5 mph 17.4 mph 46% 0 in
07:14 29.3 °F 10.4 °F 29.2 in NNE 13.6 mph 17.2 mph 47% 0 in
07:19 29.3 °F 10.4 °F 29.2 in East 11 mph 18.8 mph 48% 0 in
07:24 29.3 °F 12.2 °F 29.2 in ENE 8.7 mph 21.9 mph 49% 0 in
07:30 29.3 °F 12.2 °F 29.2 in ENE 10.3 mph 21.9 mph 49% 0 in
07:35 29.1 °F 12.2 °F 29.2 in ENE 14.8 mph 18.8 mph 50% 0 in
07:40 29.1 °F 12.2 °F 29.2 in ENE 10.5 mph 18.8 mph 50% 0 in
07:45 29.1 °F 12.2 °F 29.2 in NE 11.2 mph 20.1 mph 49% 0 in
07:50 29.1 °F 12.2 °F 29.2 in East 14.8 mph 20.1 mph 49% 0 in
07:55 28.9 °F 12.2 °F 29.2 in ENE 10.7 mph 18.1 mph 49% 0 in
08:00 29.1 °F 10.4 °F 29.2 in East 14.3 mph 17.7 mph 48% 0 in
08:05 29.1 °F 10.4 °F 29.2 in ENE 14.1 mph 17.4 mph 48% 0 in
08:10 29.1 °F 10.4 °F 29.2 in East 15.4 mph 17.4 mph 48% 0 in
08:15 29.3 °F 10.4 °F 29.2 in NE 12.5 mph 17.7 mph 47% 0 in
08:20 29.3 °F 10.4 °F 29.2 in NNE 8.5 mph 17.7 mph 47% 0 in
08:25 29.5 °F 10.4 °F 29.2 in NE 10.5 mph 15.4 mph 47% 0 in
08:30 29.5 °F 10.4 °F 29.3 in ENE 10.5 mph 15.2 mph 46% 0 in
08:35 29.5 °F 10.4 °F 29.3 in ENE 12.8 mph 18.6 mph 46% 0 in
08:41 29.5 °F 10.4 °F 29.3 in ENE 7.6 mph 18.6 mph 46% 0 in
08:46 29.5 °F 12.2 °F 29.3 in East 11.4 mph 14.3 mph 48% 0 in
08:51 29.5 °F 12.2 °F 29.3 in ENE 15.2 mph 15.2 mph 48% 0 in
08:56 29.3 °F 10.4 °F 29.3 in ENE 15.4 mph 17.2 mph 48% 0 in
09:01 29.3 °F 12.2 °F 29.3 in East 10.7 mph 19.9 mph 50% 0 in
09:06 29.1 °F 12.2 °F 29.3 in ENE 10.5 mph 19.9 mph 51% 0 in
09:11 29.1 °F 12.2 °F 29.3 in ENE 11.2 mph 16.8 mph 51% 0 in
09:16 29.1 °F 12.2 °F 29.3 in ENE 12.1 mph 15.7 mph 51% 0 in
09:21 29.1 °F 12.2 °F 29.3 in ENE 12.8 mph 15.7 mph 51% 0 in
09:26 28.9 °F 12.2 °F 29.3 in East 7.8 mph 15.2 mph 52% 0 in
09:31 28.9 °F 14 °F 29.3 in ENE 16.1 mph 17.2 mph 53% 0 in
09:36 28.9 °F 14 °F 29.3 in East 10.3 mph 17.2 mph 54% 0 in
09:41 28.9 °F 14 °F 29.3 in NE 10.5 mph 16.6 mph 54% 0 in
09:46 28.9 °F 14 °F 29.2 in East 18.1 mph 18.1 mph 56% 0 in
09:51 28.6 °F 15.8 °F 29.2 in East 10.1 mph 18.1 mph 59% 0 in
09:56 28.8 °F 15.8 °F 29.2 in ENE 7.6 mph 18.1 mph 60% 0 in
10:01 28.8 °F 15.8 °F 29.3 in ENE 11.4 mph 16.6 mph 61% 0 in
10:06 28.6 °F 17.6 °F 29.3 in ESE 12.8 mph 17.2 mph 64% 0 in
10:11 28 °F 19.4 °F 29.3 in East 12.3 mph 17.7 mph 70% 0 in
10:16 27.9 °F 19.4 °F 29.3 in East 12.3 mph 17.7 mph 72% 0 in
10:21 27.7 °F 19.4 °F 29.3 in East 9.6 mph 15.9 mph 75% 0 in
10:26 27.5 °F 19.4 °F 29.3 in East 13.2 mph 14.1 mph 78% 0 in
10:31 27.3 °F 21.2 °F 29.3 in East 6.5 mph 15.9 mph 79% 0 in
10:36 27.3 °F 21.2 °F 29.3 in East 10.5 mph 15.9 mph 79% 0 in
10:41 27.5 °F 21.2 °F 29.3 in East 7.4 mph 15.4 mph 81% 0 in
10:47 27.7 °F 21.2 °F 29.3 in ENE 8.5 mph 12.8 mph 82% 0 in
10:52 27.7 °F 21.2 °F 29.3 in East 7.8 mph 13 mph 83% 0 in
10:57 27.9 °F 23 °F 29.3 in East 10.1 mph 13.2 mph 84% 0 in
11:02 27.9 °F 21.2 °F 29.3 in East 8.1 mph 15.2 mph 83% 0 in
11:07 27.9 °F 21.2 °F 29.3 in East 10.3 mph 15.2 mph 82% 0 in
11:12 27.9 °F 21.2 °F 29.3 in ENE 14.3 mph 15.4 mph 82% 0 in
11:17 27.9 °F 21.2 °F 29.3 in ESE 12.3 mph 16.1 mph 81% 0 in
11:22 28 °F 23 °F 29.3 in ENE 13.6 mph 16.1 mph 82% 0 in
11:27 28 °F 21.2 °F 29.3 in East 15.9 mph 15.9 mph 81% 0 in
11:32 27.9 °F 21.2 °F 29.3 in East 8.5 mph 16.1 mph 80% 0 in
11:38 28.2 °F 21.2 °F 29.3 in East 8.9 mph 15.9 mph 80% 0 in
11:44 28.4 °F 21.2 °F 29.3 in NE 10.5 mph 12.8 mph 80% 0 in
11:49 28.6 °F 21.2 °F 29.3 in East 7.6 mph 12.8 mph 79% 0 in
11:54 28.6 °F 21.2 °F 29.3 in ENE 8.7 mph 13.4 mph 78% 0 in
11:59 28.6 °F 21.2 °F 29.3 in ENE 8.5 mph 15.2 mph 76% 0 in
12:04 28.8 °F 21.2 °F 29.3 in East 5.6 mph 15.2 mph 76% 0 in
12:09 28.9 °F 21.2 °F 29.3 in East 5.8 mph 12.3 mph 76% 0 in
12:14 29.1 °F 21.2 °F 29.3 in ESE 9.2 mph 16.1 mph 75% 0 in
12:19 29.1 °F 21.2 °F 29.3 in East 8.1 mph 16.1 mph 74% 0 in
12:25 29.1 °F 21.2 °F 29.3 in East 6.5 mph 14.5 mph 73% 0 in
12:30 29.1 °F 21.2 °F 29.3 in East 6 mph 14.5 mph 72% 0 in
12:35 29.3 °F 21.2 °F 29.3 in East 12.5 mph 14.5 mph 72% 0 in
12:40 29.5 °F 21.2 °F 29.3 in East 10.7 mph 14.5 mph 71% 0 in
12:45 29.5 °F 21.2 °F 29.3 in East 8.7 mph 14.5 mph 71% 0 in
12:50 29.7 °F 21.2 °F 29.3 in East 5.4 mph 14.8 mph 71% 0 in
12:55 29.7 °F 19.4 °F 29.3 in East 10.1 mph 14.8 mph 70% 0 in
13:00 29.7 °F 19.4 °F 29.3 in NE 9.6 mph 11.4 mph 70% 0 in
13:06 29.7 °F 19.4 °F 29.3 in East 6.3 mph 15.2 mph 70% 0 in
13:11 29.8 °F 21.2 °F 29.3 in ENE 13.2 mph 15.2 mph 71% 0 in
13:16 29.8 °F 21.2 °F 29.3 in East 9.8 mph 13.2 mph 71% 0 in
13:21 30 °F 21.2 °F 29.3 in East 8.1 mph 13 mph 71% 0 in
13:26 30 °F 21.2 °F 29.3 in East 8.7 mph 13.6 mph 71% 0 in
13:31 30.2 °F 21.2 °F 29.3 in East 7.8 mph 13.6 mph 71% 0 in
13:36 30.4 °F 21.2 °F 29.3 in ENE 9.4 mph 13.4 mph 70% 0 in
13:42 30.6 °F 19.4 °F 29.3 in ESE 8.7 mph 11 mph 69% 0 in
13:47 30.7 °F 21.2 °F 29.3 in ESE 10.1 mph 12.5 mph 70% 0 in
13:52 30.7 °F 21.2 °F 29.3 in NE 7.8 mph 12.5 mph 70% 0 in
13:57 30.9 °F 21.2 °F 29.3 in East 6.5 mph 11.2 mph 70% 0 in
14:02 30.9 °F 21.2 °F 29.3 in East 6.5 mph 12.8 mph 69% 0 in
14:07 31.1 °F 21.2 °F 29.3 in ESE 10.3 mph 12.8 mph 69% 0 in
14:12 31.1 °F 21.2 °F 29.3 in ENE 10.5 mph 12.3 mph 69% 0 in
14:17 31.1 °F 21.2 °F 29.3 in ENE 10.5 mph 12.3 mph 69% 0 in
14:22 31.1 °F 21.2 °F 29.3 in East 7.6 mph 12.3 mph 70% 0 in
14:27 31.1 °F 21.2 °F 29.3 in ESE 11 mph 12.3 mph 70% 0 in
14:32 31.1 °F 21.2 °F 29.3 in SE 9.8 mph 16.8 mph 72% 0 in
14:38 30.9 °F 21.2 °F 29.3 in East 10.1 mph 17 mph 73% 0 in
14:43 30.9 °F 23 °F 29.3 in ESE 14.5 mph 17 mph 74% 0 in
14:48 30.9 °F 23 °F 29.3 in East 8.5 mph 14.5 mph 74% 0 in
14:53 31.1 °F 23 °F 29.3 in ESE 5.6 mph 14.5 mph 75% 0 in
14:58 31.1 °F 23 °F 29.3 in ESE 5.8 mph 12.3 mph 75% 0 in
15:03 31.1 °F 23 °F 29.3 in ENE 5.8 mph 13.2 mph 76% 0 in
15:08 31.1 °F 23 °F 29.3 in East 11 mph 13.2 mph 76% 0 in
15:13 31.1 °F 23 °F 29.3 in East 10.5 mph 11 mph 77% 0 in
15:18 31.1 °F 23 °F 29.3 in East 8.1 mph 11 mph 78% 0 in
15:23 31.1 °F 23 °F 29.3 in ESE 7.6 mph 11.9 mph 79% 0 in
15:28 31.1 °F 23 °F 29.3 in East 8.1 mph 12.3 mph 79% 0 in
15:33 31.1 °F 23 °F 29.3 in East 4.9 mph 12.3 mph 79% 0 in
15:38 30.9 °F 24.8 °F 29.3 in ESE 10.7 mph 10.7 mph 80% 0 in
15:43 30.9 °F 24.8 °F 29.3 in ESE 12.3 mph 12.3 mph 80% 0 in
15:48 30.7 °F 24.8 °F 29.3 in SSE 9.8 mph 12.8 mph 81% 0 in
15:53 30.7 °F 24.8 °F 29.3 in SE 9.4 mph 14.5 mph 82% 0 in
15:58 30.7 °F 24.8 °F 29.3 in East 8.7 mph 14.5 mph 83% 0 in
16:03 30.6 °F 24.8 °F 29.3 in East 7.8 mph 11 mph 84% 0 in
16:08 30.6 °F 24.8 °F 29.3 in East 5.8 mph 11 mph 86% 0 in
16:13 30.6 °F 24.8 °F 29.3 in ENE 5.8 mph 13.4 mph 86% 0 in
16:18 30.6 °F 26.6 °F 29.3 in ESE 6.9 mph 13.4 mph 87% 0 in
16:23 30.6 °F 26.6 °F 29.3 in ENE 5.4 mph 11 mph 87% 0 in
16:28 30.6 °F 26.6 °F 29.3 in NE 7.2 mph 9.2 mph 88% 0 in
16:33 30.6 °F 26.6 °F 29.3 in East 7.4 mph 10.5 mph 89% 0 in
16:38 30.4 °F 26.6 °F 29.3 in ESE 4.9 mph 10.5 mph 89% 0 in
16:43 30.6 °F 26.6 °F 29.3 in East 8.7 mph 10.3 mph 89% 0 in
16:48 30.6 °F 26.6 °F 29.3 in East 8.7 mph 10.1 mph 90% 0 in
16:53 30.6 °F 26.6 °F 29.3 in East 4.9 mph 10.1 mph 90% 0 in
16:59 30.6 °F 26.6 °F 29.3 in ESE 8.7 mph 12.3 mph 90% 0 in
17:04 30.6 °F 26.6 °F 29.3 in East 5.4 mph 12.3 mph 90% 0 in
17:09 30.6 °F 26.6 °F 29.3 in East 8.1 mph 9.8 mph 90% 0 in
17:14 30.6 °F 26.6 °F 29.3 in ENE 8.1 mph 9.6 mph 90% 0 in
17:19 30.7 °F 26.6 °F 29.3 in East 4.5 mph 9.6 mph 90% 0 in
17:27 30.7 °F 26.6 °F 29.3 in ENE 8.7 mph 8.7 mph 91% 0 in
17:34 30.7 °F 26.6 °F 29.3 in East 6.5 mph 8.7 mph 91% 0 in
17:40 30.7 °F 26.6 °F 29.3 in East 7.4 mph 9.2 mph 91% 0 in
17:45 30.6 °F 26.6 °F 29.3 in East 8.1 mph 10.1 mph 91% 0 in
17:50 30.6 °F 26.6 °F 29.3 in East 5.4 mph 10.3 mph 91% 0 in
17:55 30.6 °F 26.6 °F 29.3 in ENE 4.9 mph 10.3 mph 91% 0 in
18:01 30.6 °F 26.6 °F 29.3 in ESE 5.8 mph 8.7 mph 91% 0 in
18:06 30.4 °F 26.6 °F 29.3 in East 3.6 mph 7.8 mph 91% 0 in
18:11 30.4 °F 26.6 °F 29.3 in East 4.9 mph 7.8 mph 91% 0 in
18:16 30.4 °F 26.6 °F 29.3 in East 5.8 mph 10.7 mph 91% 0 in
18:21 30.4 °F 26.6 °F 29.3 in ESE 5.6 mph 10.7 mph 91% 0 in
18:26 30.4 °F 26.6 °F 29.3 in East 5.6 mph 10.1 mph 91% 0 in
18:31 30.4 °F 26.6 °F 29.3 in East 6 mph 8.7 mph 91% 0 in
18:36 30.4 °F 26.6 °F 29.3 in East 6.3 mph 8.7 mph 91% 0 in
18:41 30.4 °F 26.6 °F 29.3 in East 5.4 mph 9.6 mph 91% 0 in
18:46 30.4 °F 26.6 °F 29.3 in East 4.9 mph 9.8 mph 91% 0 in
18:51 30.4 °F 26.6 °F 29.3 in East 6.5 mph 9.8 mph 91% 0 in
18:56 30.6 °F 26.6 °F 29.3 in East 7.4 mph 8.7 mph 91% 0 in
19:01 30.6 °F 26.6 °F 29.3 in East 7.2 mph 8.7 mph 91% 0 in
19:06 30.6 °F 26.6 °F 29.3 in East 7.4 mph 8.9 mph 91% 0 in
19:11 30.6 °F 26.6 °F 29.3 in East 7.4 mph 9.2 mph 92% 0 in
19:16 30.6 °F 26.6 °F 29.3 in ENE 5.6 mph 9.2 mph 92% 0 in
19:21 30.7 °F 26.6 °F 29.3 in ESE 7.8 mph 8.1 mph 92% 0 in
19:26 30.7 °F 26.6 °F 29.3 in ENE 7.8 mph 7.8 mph 92% 0 in
19:31 30.7 °F 26.6 °F 29.3 in East 5.6 mph 8.1 mph 92% 0 in
19:36 30.9 °F 26.6 °F 29.3 in East 6.5 mph 8.1 mph 92% 0 in
19:41 30.9 °F 26.6 °F 29.3 in East 7.2 mph 8.5 mph 92% 0 in
19:46 30.9 °F 26.6 °F 29.3 in East 7.6 mph 10.3 mph 92% 0 in
19:51 31.1 °F 26.6 °F 29.3 in ESE 7.2 mph 10.3 mph 92% 0 in
19:56 31.1 °F 26.6 °F 29.3 in East 6.5 mph 8.7 mph 92% 0 in
20:02 31.1 °F 28.4 °F 29.3 in ENE 5.6 mph 10.1 mph 93% 0 in
20:07 31.1 °F 28.4 °F 29.3 in East 5.8 mph 10.1 mph 93% 0 in
20:12 31.1 °F 28.4 °F 29.3 in East 10.1 mph 10.1 mph 93% 0 in
20:17 31.3 °F 28.4 °F 29.3 in East 5.6 mph 10.1 mph 93% 0 in
20:22 31.3 °F 28.4 °F 29.3 in East 5.8 mph 8.5 mph 93% 0 in
20:27 31.5 °F 28.4 °F 29.3 in East 5.4 mph 8.5 mph 93% 0 in
20:32 31.5 °F 28.4 °F 29.3 in East 5.4 mph 8.7 mph 93% 0 in
20:37 31.5 °F 28.4 °F 29.3 in East 7.4 mph 8.7 mph 93% 0 in
20:42 31.6 °F 28.4 °F 29.3 in NE 6.3 mph 8.7 mph 93% 0 in
20:47 31.6 °F 28.4 °F 29.3 in ENE 7.2 mph 8.5 mph 93% 0 in
20:52 31.6 °F 28.4 °F 29.3 in East 5.6 mph 8.5 mph 93% 0 in
20:57 31.6 °F 28.4 °F 29.3 in ENE 4.9 mph 8.7 mph 93% 0 in
21:02 31.6 °F 28.4 °F 29.3 in East 6 mph 8.7 mph 93% 0 in
21:07 31.6 °F 28.4 °F 29.3 in East 4.9 mph 7.4 mph 93% 0 in
21:12 31.6 °F 28.4 °F 29.3 in East 5.6 mph 8.1 mph 93% 0 in
21:17 31.6 °F 28.4 °F 29.3 in ESE 3.8 mph 8.1 mph 93% 0 in
21:23 31.8 °F 28.4 °F 29.3 in NE 5.8 mph 8.1 mph 93% 0 in
21:28 31.8 °F 28.4 °F 29.3 in East 6.5 mph 8.5 mph 93% 0 in
21:33 31.8 °F 28.4 °F 29.3 in East 6.5 mph 8.5 mph 93% 0 in
21:38 31.8 °F 28.4 °F 29.3 in East 7.6 mph 7.6 mph 93% 0 in
21:43 31.8 °F 28.4 °F 29.3 in SE 6.3 mph 8.7 mph 93% 0 in
21:48 31.8 °F 28.4 °F 29.3 in ENE 3.4 mph 8.7 mph 93% 0 in
21:53 31.8 °F 28.4 °F 29.3 in ENE 4.3 mph 8.5 mph 93% 0 in
21:58 31.8 °F 28.4 °F 29.3 in ENE 4.7 mph 8.5 mph 94% 0 in
22:03 31.8 °F 28.4 °F 29.3 in East 3.8 mph 6.3 mph 94% 0 in
22:08 32 °F 28.4 °F 29.3 in East 3.8 mph 6.3 mph 94% 0 in
22:13 32 °F 28.4 °F 29.3 in Calm   6.3 mph 94% 0 in
22:18 32 °F 28.4 °F 29.3 in ESE 4 mph 6.3 mph 93% 0 in
22:23 32.2 °F 30.2 °F 29.3 in East 6 mph 7.4 mph 94% 0 in
22:29 32.2 °F 30.2 °F 29.3 in East 3.4 mph 7.4 mph 94% 0 in
22:34 32.2 °F 30.2 °F 29.3 in East 3.8 mph 7.2 mph 94% 0 in
22:39 32.2 °F 30.2 °F 29.3 in East 3.6 mph 7.2 mph 94% 0 in
22:44 32.2 °F 30.2 °F 29.3 in East 3.1 mph 5.6 mph 94% 0 in
22:49 32.2 °F 30.2 °F 29.3 in Calm   6.3 mph 94% 0 in
22:54 32.2 °F 30.2 °F 29.3 in ESE 1.6 mph 6.3 mph 94% 0 in
22:59 32.2 °F 30.2 °F 29.4 in Calm   5.8 mph 93% 0 in
23:04 32.2 °F 30.2 °F 29.4 in Calm   5.4 mph 93% 0 in
23:09 32.2 °F 30.2 °F 29.4 in East 3.1 mph 5.4 mph 93% 0 in
23:14 32.2 °F 30.2 °F 29.3 in Calm   3.1 mph 93% 0 in
23:19 32 °F 28.4 °F 29.3 in Calm   2.5 mph 93% 0 in
23:24 32 °F 28.4 °F 29.3 in Calm     93% 0 in
23:29 32 °F 28.4 °F 29.3 in Calm     92% 0 in
23:34 32 °F 28.4 °F 29.3 in Calm     92% 0 in
23:39 31.8 °F 28.4 °F 29.3 in Calm     92% 0 in
23:44 31.8 °F 28.4 °F 29.3 in Calm     92% 0 in
23:49 31.6 °F 28.4 °F 29.3 in Calm     92% 0 in
23:54 31.6 °F 28.4 °F 29.3 in Calm     92% 0 in
23:59 31.5 °F 28.4 °F 29.3 in Calm     91% 0 in
Données Historique de Météo Turbie

Mise a jour : 18/06/2018 00:21:13
Généré par Cumulus 1.9.4 (1099)